Find Starlink 30138

NORAD ID: 57605 Int'l Des: 2023-119 Owner: SPXS Country: US Constellation: starlink operational
LEOCIRCULAR

現在のビュー

3D地球を読み込み中...

About Starlink 30138

Starlink 30138 (NORAD 57605) is a starlink constellation satellite (v2 mini) launched Aug 11, 2023 by SPXS of US. It operates in LEO, CIRCULAR orbit with a mass of 730.00 kg.

Starlink 30138について

説明を読み込み中...

次回通過

Passes for default location (London). Set your location on the main map for personalized predictions.

高度履歴

Loading altitude history...

軌道要素

1 57605U 23119D 26170.88049136 .00000409 00000-0 24406-4 0 9997
2 57605 43.0039 224.5907 0002027 262.6184 97.4437 15.27581495158716
Epoch: Jun 19, 2026 • Age: 9 hours

現在のステータス

高度 483.7 km
速度 7.63 km/s
衛星直下点 -7.13°S, 54.64°E
打ち上げ日 Aug 11, 2023
運用期間 2.8 years
タイプ internet

技術仕様

分類 Payload
質量 730.00 kg
乾燥質量 700.00 kg
総質量 730.00 kg
長さ 0.30 m
直径 4.10 m
スパン 29.00 m
形状 Box + pan
製造者 SPXS
バスタイプ Starlink V2M
フェーズステータス In Orbit
所有者/国 SPXS/US

Most Searched